Location: USNO
(38.9242°N, 77.0663°W)
Time: 22:54:58
(UTC-04:00)

Vanguard 3 - All Passes

Search period start: 19 April 2018 00:00
Search period end: 29 April 2018 00:00
Orbit: 508 x 3264 km, 33.3° (Epoch: 19 April)

Date Brightness Start Highest point End Pass type
(mag) Time Alt. Az. Time Alt. Az. Time Alt. Az.
19 Apr - 01:33:05 10° WSW 01:38:19 54° S 01:47:24 10° ESE visible
19 Apr - 03:43:48 10° W 03:50:49 41° SSW 04:02:43 10° SE visible
19 Apr - 05:56:45 10° WSW 06:04:26 22° SSW 06:15:00 10° SSE visible
19 Apr - 22:11:12 10° SSW 22:13:55 18° SSE 22:17:06 10° ESE night (unlit)
20 Apr - 00:20:22 10° WSW 00:24:41 48° S 00:31:32 10° E night (unlit)
20 Apr - 02:30:42 10° W 02:36:31 47° S 02:46:36 10° ESE visible
20 Apr - 04:42:15 10° WSW 04:49:28 28° SSW 05:00:30 10° SSE visible
20 Apr - 07:01:25 10° SW 07:03:24 10° SSW 07:05:29 10° SSW daylight
20 Apr - 23:07:46 10° SW 23:11:22 34° SSE 23:16:16 10° E night (unlit)
21 Apr - 01:17:49 10° WSW 01:22:37 50° S 01:30:39 10° ESE visible
21 Apr - 03:28:37 10° W 03:34:54 34° SSW 03:45:09 10° SE visible
21 Apr - 05:42:21 10° WSW 05:48:16 16° SSW 05:55:55 10° S visible
21 Apr - 21:55:26 10° SSW 21:58:15 20° SSE 22:01:25 10° ESE visible
22 Apr - 00:05:03 10° WSW 00:09:04 46° S 00:15:10 10° ESE night (unlit)
22 Apr - 02:15:29 10° W 02:20:45 40° S 02:29:31 10° SE visible
22 Apr - 04:27:22 10° WSW 04:33:28 22° SSW 04:42:18 10° SSE visible
22 Apr - 20:44:08 10° S 20:45:05 11° SSE 20:46:02 10° SE visible
22 Apr - 22:52:18 10° SW 22:55:47 35° SSE 23:00:15 10° ESE night (unlit)
23 Apr - 01:02:34 10° WSW 01:06:59 44° S 01:14:01 10° ESE night (unlit)
23 Apr - 03:13:34 10° WSW 03:19:04 28° SSW 03:27:34 10° SE visible
23 Apr - 05:29:16 10° SW 05:32:14 11° SSW 05:35:35 10° SSW visible
23 Apr - 21:39:38 10° SW 21:42:37 23° SSE 21:45:50 10° ESE visible
23 Apr - 23:49:43 10° WSW 23:53:30 43° S 23:58:54 10° ESE night (unlit)
24 Apr - 02:00:20 10° WSW 02:05:02 33° SSW 02:12:28 10° SE visible
24 Apr - 04:12:55 10° WSW 04:17:35 16° SSW 04:23:46 10° S visible
24 Apr - 20:27:15 10° SSW 20:29:25 14° SSE 20:31:28 10° SE visible
24 Apr - 22:36:50 10° WSW 22:40:14 36° S 22:44:21 10° ESE visible
25 Apr - 00:47:20 10° WSW 00:51:22 37° S 00:57:26 10° ESE night (unlit)
25 Apr - 02:58:43 10° WSW 03:03:18 21° SSW 03:09:53 10° SSE visible
25 Apr - 21:23:50 10° SW 21:27:03 26° SSE 21:30:17 10° ESE visible
25 Apr - 23:34:23 10° WSW 23:37:58 39° S 23:42:44 10° ESE night (unlit)
26 Apr - 01:45:16 10° WSW 01:49:23 26° SSW 01:55:26 10° SE night (unlit)
26 Apr - 03:59:42 10° SW 04:01:47 11° SSW 04:04:07 10° S visible
26 Apr - 20:10:48 10° SSW 20:13:48 18° SSE 20:16:28 10° ESE daylight
26 Apr - 22:21:19 10° WSW 22:24:43 36° S 22:28:32 10° ESE visible
27 Apr - 00:32:08 10° WSW 00:35:47 31° S 00:40:55 10° SE night (unlit)
27 Apr - 02:44:13 10° SW 02:47:36 15° SSW 02:51:57 10° SSE night (unlit)
27 Apr - 18:58:03 10° S 19:00:23 13° SSE 19:02:24 10° SE daylight
27 Apr - 21:07:59 10° SW 21:11:32 30° S 21:14:48 10° ESE visible
27 Apr - 23:19:02 10° WSW 23:22:26 35° S 23:26:40 10° ESE visible
28 Apr - 01:30:22 10° WSW 01:33:46 20° SSW 01:38:20 10° SSE night (unlit)
28 Apr - 19:54:25 10° SW 19:58:15 23° SSE 20:01:21 10° ESE daylight
28 Apr - 22:05:44 10° WSW 22:09:13 36° S 22:12:48 10° ESE visible
